Dubuque, IA

11:43 AM CDT on October 14, 2019 (GMT -0500)
Dubuque Regional

Weather History for KDBQ - August, 2019

Change the Weather History Date:

Tuesday, August 27, 2019

  Actual Average Record
Temperature  
Mean Temperature 66 °F 69 °F  
Max Temperature 75 °F 79 °F 94 °F (1895)
Min Temperature 55 °F 59 °F 43 °F (1915)
Degree Days  
Heating Degree Days 0 1  
Month to date heating degree days 3 12  
Since 1 June heating degree days 32 60  
Since 1 July heating degree days 3 20  
Cooling Degree Days 1 5  
Month to date cooling degree days 119 160  
Year to date cooling degree days 572 560  
Since 1 June cooling degree days 546 523  
Growing Degree Days 16 (Base 50)    
Moisture  
Dew Point 59 °F    
Average Humidity 86    
Maximum Humidity 100    
Minimum Humidity 46    
Precipitation  
Precipitation 0.00 in 0.13 in 1.77 in (2009)
Month to date precipitation 5.02 3.85  
Year to date precipitation 31.13 25.43  
Snow  
Snow 0.00 in 0.00 in - ()
Month to date snowfall 0.0 0.0  
Since 1 June snowfall 0.0 0.0  
Since 1 July snowfall 0.0 0.0  
Snow Depth 0.00 in    
Sea Level Pressure  
Sea Level Pressure 29.82 in    
Wind  
Wind Speed 7 mph ()    
Max Wind Speed 23 mph    
Max Gust Speed 31 mph    
Visibility 5.5 miles    
Events Fog    
T = Trace of Precipitation, MM = Missing Value Source: Averaged Metar Reports

Daily Weather History Graph

Daily Weather History Graph

Search for Another Location

Airport or City:

Astronomy

Aug. 27, 2019 Rise Set
Actual Time 6:22 AM CDT 7:45 PM CDT
Civil Twilight 5:53 AM CDT 8:14 PM CDT
Nautical Twilight 5:17 AM CDT 8:49 PM CDT
Astronomical Twilight 4:40 AM CDT 9:27 PM CDT
Moon 2:42 AM CDT (8/27) 6:10 PM CDT (8/27)
Length of Visible Light 14h 21m
Length of Day
13h 23m
Waning Crescent, 11% of the Moon is Illuminated
Aug 27
Waning Crescent
Aug 30
New
Sep 5
First Quarter
Sep 13
Full
Sep 21
Last Quarter

Hourly Weather History & Observations

Time (CDT) Temp. Dew Point Humidity Pressure Visibility Wind Dir Wind Speed Gust Speed Precip Events Conditions
12:53 AM 62.1 °F 61.0 °F 96% 29.76 in 10.0 mi West 3.5 mph - N/A   Clear
1:19 AM 60.1 °F 59.0 °F 96% 29.77 in 10.0 mi SW 3.5 mph - N/A   Partly Cloudy
1:33 AM 60.1 °F 60.1 °F 100% 29.78 in 1.8 mi WSW 5.8 mph - N/A   Mostly Cloudy
1:39 AM 60.1 °F 60.1 °F 100% 29.78 in 0.5 mi WSW 4.6 mph - N/A Fog Fog
1:53 AM 61.0 °F 61.0 °F 100% 29.78 in 0.5 mi SW 4.6 mph - N/A Fog Fog
1:57 AM 61.0 °F 61.0 °F 100% 29.79 in 0.2 mi WSW 5.8 mph - N/A Fog Fog
2:05 AM 61.0 °F 61.0 °F 100% 29.78 in 0.5 mi SW 5.8 mph - N/A Fog Fog
2:45 AM 61.0 °F 61.0 °F 100% 29.77 in 0.2 mi SW 8.1 mph - N/A Fog Fog
2:53 AM 61.0 °F 61.0 °F 100% 29.77 in 0.2 mi SW 8.1 mph - N/A Fog Fog
3:42 AM 62.1 °F 62.1 °F 100% 29.79 in 0.2 mi SW 9.2 mph - N/A Fog Fog
3:46 AM 62.1 °F 62.1 °F 100% 29.79 in 0.5 mi SSW 9.2 mph - N/A Fog Fog
3:50 AM 62.6 °F 62.6 °F 100% 29.79 in 0.2 mi SW 10.4 mph - N/A Fog Fog
3:53 AM 62.1 °F 62.1 °F 100% 29.78 in 0.2 mi SW 9.2 mph - N/A Fog Fog
4:02 AM 62.1 °F 62.1 °F 100% 29.79 in 0.2 mi SW 8.1 mph - N/A Fog Fog
4:26 AM 62.1 °F 62.1 °F 100% 29.80 in 0.2 mi SW 9.2 mph - N/A Fog Fog
4:34 AM 62.1 °F 62.1 °F 100% 29.80 in 0.5 mi WSW 9.2 mph - N/A Fog Fog
4:53 AM 61.0 °F 61.0 °F 100% 29.79 in 0.5 mi SW 10.4 mph - N/A Fog Fog
5:24 AM 61.0 °F 61.0 °F 100% 29.80 in 1.5 mi WSW 9.2 mph - N/A   Overcast
5:32 AM 61.0 °F 61.0 °F 100% 29.80 in 2.0 mi WSW 10.4 mph - N/A   Overcast
5:53 AM 61.0 °F 61.0 °F 100% 29.79 in 4.0 mi WSW 9.2 mph - N/A   Overcast
6:37 AM 59.0 °F 59.0 °F 100% 29.81 in 5.0 mi West 5.8 mph - N/A   Partly Cloudy
6:53 AM 60.1 °F 60.1 °F 100% 29.81 in 7.0 mi West 6.9 mph - N/A   Clear
7:53 AM 62.1 °F 60.1 °F 93% 29.83 in 10.0 mi West 6.9 mph - N/A   Clear
8:53 AM 64.9 °F 62.1 °F 90% 29.84 in 10.0 mi West 6.9 mph - N/A   Clear
9:53 AM 68.0 °F 62.1 °F 81% 29.85 in 10.0 mi West 11.5 mph - N/A   Clear
10:53 AM 71.1 °F 62.1 °F 73% 29.86 in 10.0 mi West 12.7 mph - N/A   Clear
11:53 AM 73.0 °F 62.1 °F 68% 29.85 in 10.0 mi WSW 13.8 mph 20.7 mph N/A   Clear
12:53 PM 73.9 °F 59.0 °F 59% 29.85 in 10.0 mi West 16.1 mph 29.9 mph N/A   Clear
1:53 PM 73.9 °F 57.0 °F 55% 29.85 in 10.0 mi WNW 15.0 mph 25.3 mph N/A   Partly Cloudy
2:53 PM 75.0 °F 54.0 °F 48% 29.85 in 10.0 mi West 19.6 mph 29.9 mph N/A   Scattered Clouds
3:53 PM 75.0 °F 54.0 °F 48% 29.85 in 10.0 mi West 18.4 mph 28.8 mph N/A   Clear
4:53 PM 73.9 °F 52.0 °F 46% 29.85 in 10.0 mi West 16.1 mph - N/A   Clear
5:53 PM 71.1 °F 51.1 °F 49% 29.87 in 10.0 mi West 13.8 mph - N/A   Scattered Clouds
6:53 PM 69.1 °F 52.0 °F 54% 29.88 in 10.0 mi West 9.2 mph - N/A   Clear
7:53 PM 63.0 °F 52.0 °F 67% 29.89 in 10.0 mi West 8.1 mph - N/A   Clear
8:53 PM 60.1 °F 51.1 °F 72% 29.91 in 10.0 mi WSW 6.9 mph - N/A   Clear
9:53 PM 59.0 °F 51.1 °F 75% 29.91 in 10.0 mi WSW 5.8 mph - N/A   Clear
10:53 PM 57.0 °F 52.0 °F 83% 29.91 in 10.0 mi WSW 5.8 mph - N/A   Partly Cloudy
11:53 PM 55.9 °F 51.1 °F 84% 29.91 in 10.0 mi WSW 8.1 mph - N/A   Clear